This is the latest recevied weather packets stored in our database for station/object SQ6XL-13. If no packets are shown the sender has not sent any weather packets the latest 10 day(s).
| Time | Temp. | Humidity | Pressure | Rain* | Wind** | Luminosity | Snow |
|---|---|---|---|---|---|---|---|
| 1787550595 | 11.67° C | 96% | 1023.1 hPa | 0 mm | - | - | - |
| 1787550040 | 10.56° C | 96% | 1023.1 hPa | 0 mm | - | - | - |
| 1787549550 | 10.56° C | 96% | 1023 hPa | 0 mm | - | - | - |
| 1787549010 | 9.44° C | 96% | 1023 hPa | 0 mm | - | - | - |
| 1787548490 | 8.89° C | 96% | 1023 hPa | 0 mm | - | - | - |
| 1787547940 | 8.89° C | 96% | 1022.9 hPa | 0 mm | - | - | - |
| 1787547415 | 8.33° C | 95% | 1023 hPa | 0 mm | - | - | - |
| 1787546865 | 8.33° C | 95% | 1022.9 hPa | 0 mm | - | - | - |
| 1787546345 | 8.33° C | 95% | 1022.9 hPa | 0 mm | - | - | - |
| 1787545785 | 8.33° C | 95% | 1022.8 hPa | 0 mm | - | - | - |
| 1787545270 | 8.33° C | 94% | 1022.8 hPa | 0 mm | - | - | - |
| 1787544755 | 8.33° C | 94% | 1022.7 hPa | 0 mm | - | - | - |
| 1787544180 | 8.89° C | 94% | 1022.7 hPa | 0 mm | - | - | - |
| 1787543610 | 8.89° C | 94% | 1022.7 hPa | 0 mm | - | - | - |
| 1787543025 | 9.44° C | 94% | 1022.8 hPa | 0 mm | - | - | - |
| 1787542455 | 9.44° C | 94% | 1022.5 hPa | 0 mm | - | - | - |
| 1787541885 | 9.44° C | 94% | 1022.7 hPa | 0 mm | - | - | - |
| 1787541330 | 9.44° C | 94% | 1022.8 hPa | 0 mm | - | - | - |
| 1787540850 | 9.44° C | 94% | 1022.6 hPa | 0 mm | - | - | - |
| 1787540280 | 9.44° C | 94% | 1022.6 hPa | 0 mm | - | - | - |
| 1787539730 | 10° C | 94% | 1022.7 hPa | 0 mm | - | - | - |
| 1787539245 | 10° C | 94% | 1022.7 hPa | 0 mm | - | - | - |
| 1787538700 | 9.44° C | 94% | 1022.6 hPa | 0 mm | - | - | - |
| 1787538175 | 10° C | 94% | 1022.8 hPa | 0 mm | - | - | - |
| 1787537578 | 10° C | 94% | 1022.7 hPa | 0 mm | - | - | - |
* Rain latest hour (hover to see other rain measurements)
** Current wind speed in m/s (hover to see current wind gust speed)